Content
SEND FEEDBACK

Daily
Averages
Monthly
Summary
United States of America

ANN ARBOR, MICHIGAN


Home > North America > United States > Michigan
Elevation: 759 feet     Latitude: 42 17N     Longitude: 083 43W

WEATHER
 
SELECT A DAY
Number of Records: 203,415;   Date Range: 1/1/95 - 7/29/14
 
SHARE

PRINT THIS DATA

[ ← Previous Day ]
WEATHER ALMANAC - FEBRUARY 7, 2013
[ Next Day → ]
[ °C ]   °F
Weather ElementAverageHighLow
Temperature30.7 °F39 °F (3:53 pm)24.1 °F (1:53 am)
Dewpoint23.2 °F27 °F (2:53 pm)18 °F (1:53 am)
Humidity74 %88 % (11:53 pm)62 % (3:53 pm)
Barometer30.10 in30.28 in (1:53 am)29.86 in (11:53 pm)
Wind Speed7.5 mph11.5 mph (3:53 pm)
Wind Gust17.3 mph (9:53 pm)
Weather ElementAverage
Visibility9.3 mi
Wind DirectionE (95 °)

Weather ElementTotal
Precipitation0.01 in
Heating Degree Days33.5 (Base 65)
Averaged from 22 records on February 7, 2013
WEATHER CONDITIONS BREAKOUT
WIND DIRECTION BREAKOUT
WEATHER BY HOUR - FEBRUARY 7, 2013
[ °C ]   °F
Local TimeTemperatureDewpointHumidityBarometerVisibilityWind DirectionWind SpeedGust SpeedPrecipitationEventsConditions
1:53 AM24.1 °F18.0 °F77 %30.28 in10.0 miESE (120°)4.6 mphOvercast
2:53 AM25.0 °F19.0 °F78 %30.27 in10.0 miSE (130°)5.8 mphOvercast
3:53 AM25.0 °F19.0 °F78 %30.27 in10.0 miCalmOvercast
4:53 AM26.1 °F19.0 °F75 %30.25 in10.0 miEast (90°)6.9 mphOvercast
5:53 AM26.1 °F19.0 °F75 %30.25 in10.0 miESE (120°)5.8 mphOvercast
6:53 AM26.1 °F19.9 °F78 %30.24 in10.0 miESE (120°)6.9 mphOvercast
7:53 AM27.0 °F21.0 °F78 %30.23 in10.0 miSE (130°)6.9 mphOvercast
8:53 AM27.0 °F21.9 °F81 %30.22 in8.0 miSE (140°)5.8 mphOvercast
10:53 AM30.9 °F23.0 °F72 %30.19 in8.0 miESE (110°)4.6 mphOvercast
11:53 AM34.0 °F24.1 °F67 %30.17 in9.0 miEast (80°)8.1 mphClear
12:53 PM35.1 °F25.0 °F67 %30.13 in9.0 miEast (100°)8.1 mphClear
1:53 PM37.0 °F26.1 °F65 %30.09 in10.0 miEast (80°)6.9 mphPartly Cloudy
2:53 PM37.9 °F27.0 °F65 %30.06 in10.0 miEast (100°)8.1 mphClear
3:53 PM39.0 °F27.0 °F62 %30.02 in10.0 miEast (100°)11.5 mphPartly Cloudy
4:53 PM36.0 °F27.0 °F70 %30.00 in9.0 miEast (90°)8.1 mphClear
5:53 PM34.0 °F26.1 °F73 %30.00 in8.0 miESE (110°)10.4 mphPartly Cloudy
6:53 PM32.0 °F25.0 °F75 %29.99 in10.0 miEast (90°)9.2 mphScattered Clouds
7:53 PM30.9 °F25.0 °F79 %29.96 in10.0 miEast (90°)9.2 mphMostly Cloudy
8:53 PM30.9 °F24.1 °F76 %29.94 in10.0 miEast (90°)10.4 mphOvercast
9:53 PM30.9 °F24.1 °F76 %29.91 in10.0 miENE (70°)6.9 mph17.3 mphOvercast
10:53 PM30.9 °F23.0 °F72 %29.89 in10.0 miENE (60°)9.2 mphOvercast
11:53 PM30.0 °F27.0 °F88 %29.86 in4.0 miENE (70°)11.5 mph17.3 mph0.01 inRainLight Freezing Rain
Hourly data recorded from KARB, located miles away from Ann Arbor, Michigan







STORIES FROM OUR PARTNERS